DateTimeUTC,F1_A11,F1_S11,BsB_S11,BsG_S11,BsR_S11,BbsB_S11,BbsG_S11,BbsR_S11,BaB_A11,BaG_A11,BaR_A11,Tu_S11,T_S11,Uu_S11,U_S11,P_S11,T1_A11
2021-07-29T20:00:00Z,00040200,20000000,,,,,,,0000.13,-000.01,0000.48,20.7,26.9,08.9,06.1,0686.0,31.3
2021-07-29T20:01:00Z,00040200,20000000,,,,,,,-000.32,-000.27,-000.30,20.7,26.9,08.9,06.1,0686.0,31.3
2021-07-29T20:02:00Z,00040200,20000000,,,,,,,-000.49,-000.14,-000.18,20.7,27.0,08.9,06.1,0686.0,31.3
2021-07-29T20:03:00Z,00040200,60000000,,,,,,,0000.60,0000.48,0000.20,20.7,27.0,08.9,06.1,0686.0,31.3
2021-07-29T20:04:00Z,00040200,40000000,0005.40,0003.46,0001.98,0000.47,0000.53,0000.33,0001.06,0000.74,0000.72,20.8,26.9,08.7,06.0,0687.0,31.3
2021-07-29T20:05:00Z,00040200,00000000,0004.89,0003.57,0001.86,0000.11,0000.57,0000.29,0000.80,0000.55,0000.53,20.9,26.8,08.6,06.0,0687.1,31.3
2021-07-29T20:06:00Z,00040200,00000000,0004.87,0003.20,0001.88,0000.35,0000.73,0000.48,0000.78,0000.87,0000.48,20.9,26.8,08.6,06.0,0687.0,31.3
2021-07-29T20:07:00Z,00040200,00000000,0004.77,0003.25,0002.25,0000.51,0000.40,0000.44,0000.65,0000.60,0000.38,20.9,26.8,08.5,06.0,0687.1,31.3
2021-07-29T20:08:00Z,00040200,00000000,0005.75,0003.15,0002.06,0000.64,0000.56,0000.43,0000.78,0000.40,0000.55,20.9,26.8,08.5,05.9,0687.0,31.3
2021-07-29T20:09:00Z,00040200,00000000,0004.25,0003.03,0002.11,0000.18,0000.49,0000.08,0000.54,0001.03,0000.07,20.9,26.8,08.3,05.8,0687.0,31.3
2021-07-29T20:10:00Z,00040200,00000000,0004.03,0003.07,0001.83,0000.06,0000.52,0000.23,0000.82,0000.72,0000.83,20.9,26.9,08.2,05.8,0687.0,31.3
2021-07-29T20:11:00Z,00040200,00000000,0005.24,0003.49,0002.39,0000.36,0000.58,0000.60,0000.89,0000.79,0001.00,20.9,26.9,08.2,05.8,0687.0,31.3
2021-07-29T20:12:00Z,00040200,00000000,0004.50,0003.62,0002.02,0000.46,0000.43,0000.18,0001.07,0000.85,0000.39,20.9,26.8,08.2,05.8,0687.0,31.3
2021-07-29T20:13:00Z,00040200,00000000,0004.57,0003.19,0002.40,0000.53,0000.15,0000.50,0000.70,0001.04,0000.91,20.9,26.8,08.2,05.7,0687.0,31.3
2021-07-29T20:14:00Z,00040200,00000000,0006.34,0003.23,0001.41,0000.52,0000.35,0000.26,0000.69,0000.60,0000.32,20.9,26.9,08.1,05.7,0687.0,31.4
2021-07-29T20:15:00Z,00040200,00000000,0004.09,0003.25,0002.05,0000.23,0000.20,0000.32,0001.03,0000.94,0000.67,20.9,26.8,08.3,05.8,0687.0,31.4
2021-07-29T20:16:00Z,00040200,00000000,0004.25,0003.39,0002.00,0000.97,0000.30,0000.57,0000.66,0000.25,0000.46,20.9,26.8,08.1,05.7,0687.1,31.4
2021-07-29T20:17:00Z,00040200,00000000,0005.24,0003.36,0002.20,0001.15,0000.20,0000.27,0001.02,0000.82,0000.66,20.9,26.8,08.2,05.7,0687.0,31.4
2021-07-29T20:18:00Z,00040200,00000000,0005.21,0003.31,0002.22,0000.78,0000.42,0000.81,0000.89,0001.03,0000.60,20.9,26.8,08.2,05.7,0687.0,31.4
2021-07-29T20:19:00Z,00040200,00000000,0004.97,0003.24,0001.86,0000.90,0000.45,0000.20,0000.88,0000.75,0000.88,20.9,26.8,08.2,05.8,0687.0,31.4
2021-07-29T20:20:00Z,00040200,00000000,0004.54,0003.20,0001.80,0000.51,0000.79,0000.27,0000.90,0001.23,0000.64,20.9,26.8,08.2,05.8,0687.0,31.4
2021-07-29T20:21:00Z,00040200,00000000,0004.75,0003.37,0001.86,0001.23,0000.58,0000.18,0000.93,0000.28,0000.41,20.9,26.9,08.2,05.7,0687.0,31.4
2021-07-29T20:22:00Z,00040200,00000000,0004.94,0003.26,0002.18,0000.78,0000.53,0000.20,0000.73,0000.99,0000.44,20.9,26.8,08.1,05.7,0687.0,31.4
2021-07-29T20:23:00Z,00040200,00000000,0004.40,0003.48,0001.42,0000.55,0000.43,0000.06,0001.05,0000.56,0000.69,20.9,26.8,08.1,05.7,0687.0,31.4
2021-07-29T20:24:00Z,00040200,00000000,0005.53,0003.48,0002.03,0000.81,0000.16,0000.29,0000.71,0001.23,0000.89,20.9,26.8,08.1,05.7,0687.0,31.4
2021-07-29T20:25:00Z,00040200,00000000,0004.92,0003.20,0001.70,0000.70,0000.51,0000.41,0000.55,0000.24,0000.18,20.9,26.8,08.0,05.6,0687.0,31.4
2021-07-29T20:26:00Z,00040200,00000000,0004.31,0003.24,0002.12,0000.17,0000.53,0000.16,0000.91,0000.87,0000.67,20.9,26.8,08.0,05.6,0687.0,31.4
2021-07-29T20:27:00Z,00040200,00000000,0004.94,0003.31,0002.26,0000.16,0000.40,0000.22,0001.16,0001.04,0001.02,20.9,26.8,08.0,05.6,0687.0,31.4
2021-07-29T20:28:00Z,00040200,00000000,0004.37,0003.03,0002.33,0000.87,0000.40,0000.38,0001.02,0000.69,0000.20,20.9,26.9,08.0,05.6,0687.0,31.4
2021-07-29T20:29:00Z,00040200,00000000,0005.75,0003.24,0002.38,0000.70,0000.25,0000.70,0000.94,0001.09,0001.06,20.9,26.8,08.1,05.7,0687.0,31.4
2021-07-29T20:30:00Z,00040200,00000000,0004.98,0003.07,0002.00,0001.01,0000.39,0000.19,0001.18,0000.82,0000.58,20.9,26.8,08.2,05.7,0687.0,31.4
2021-07-29T20:31:00Z,00040200,00000000,0004.17,0003.51,0002.14,0000.96,0000.64,0000.50,0000.77,0000.99,0000.75,20.9,26.9,08.2,05.7,0687.0,31.4
2021-07-29T20:32:00Z,00040200,00000000,0004.99,0003.38,0002.13,0000.09,0000.40,0000.69,0000.60,0000.72,0000.49,20.9,26.8,08.3,05.8,0687.0,31.4
2021-07-29T20:33:00Z,00040200,00000000,0004.95,0002.79,0001.98,0000.60,0000.30,-000.10,0001.33,0001.14,0000.84,20.9,26.8,08.2,05.7,0687.0,31.4
2021-07-29T20:34:00Z,00040200,00000000,0005.14,0003.52,0001.90,0000.52,0000.58,0000.26,0000.97,0000.90,0000.58,20.9,26.8,08.3,05.8,0687.0,31.4
2021-07-29T20:35:00Z,00040200,00000000,0004.54,0003.29,0001.96,0000.38,0000.37,0000.42,0001.19,0000.90,0001.10,20.9,26.8,08.3,05.8,0687.0,31.4
2021-07-29T20:36:00Z,00040200,00000000,0004.54,0003.07,0002.23,0000.84,0000.40,0000.05,0000.69,0000.97,0000.17,20.9,26.8,08.4,05.9,0687.0,31.4
2021-07-29T20:37:00Z,00040200,00000000,0005.23,0003.06,0001.89,0000.76,0000.41,0000.45,0001.36,0000.69,0001.03,20.9,26.8,08.4,05.8,0687.0,31.4
2021-07-29T20:38:00Z,00040200,00000000,0005.34,0003.58,0001.83,0000.13,0000.13,-000.04,0000.55,0000.90,0000.57,20.9,26.8,08.4,05.8,0687.0,31.4
2021-07-29T20:39:00Z,00040200,00000000,0004.69,0003.05,0002.13,-000.13,0000.34,0000.35,0000.99,0001.12,0001.01,20.9,26.8,08.5,05.9,0687.0,31.4
2021-07-29T20:40:00Z,00040200,00000000,0005.18,0003.18,0001.81,0001.00,0000.21,0000.10,0001.06,0000.53,0000.00,20.9,26.8,08.5,05.9,0687.0,31.3
2021-07-29T20:41:00Z,00040200,00000000,0004.44,0003.13,0001.93,0000.68,0000.32,0000.48,0000.54,0000.19,0000.38,20.9,26.8,08.4,05.9,0687.0,31.3
2021-07-29T20:42:00Z,00040200,00000000,0005.18,0003.08,0001.97,0000.75,0000.37,0000.60,0001.19,0001.24,0001.09,20.9,26.8,08.3,05.8,0687.0,31.3
2021-07-29T20:43:00Z,00040200,00000000,0004.65,0003.21,0002.02,0000.60,0000.51,0000.28,0000.56,0001.44,0000.87,20.9,26.8,08.3,05.8,0687.0,31.3
2021-07-29T20:44:00Z,00040200,00000000,0004.69,0003.18,0002.09,0000.13,0000.72,0000.15,0000.79,-000.08,0000.07,20.9,26.8,08.4,05.9,0687.0,31.3
2021-07-29T20:45:00Z,00040200,00000000,0004.85,0003.23,0001.71,0001.32,0000.54,-000.25,0000.41,0000.01,0000.08,20.9,26.8,08.1,05.7,0687.0,31.3
2021-07-29T20:46:00Z,00040200,00000000,0004.91,0003.23,0002.09,0000.55,0000.10,0000.26,-000.01,0000.61,-000.06,20.9,26.8,07.7,05.4,0687.0,31.3
2021-07-29T20:47:00Z,00040200,00000000,0005.27,0002.98,0001.68,0000.63,0000.60,0000.25,0000.91,0000.69,0000.51,20.9,26.8,07.7,05.4,0686.9,31.3
2021-07-29T20:48:00Z,00040200,00000000,0004.10,0002.95,0002.45,0000.93,0000.35,0000.40,0000.88,0000.92,0000.65,20.9,26.8,07.7,05.4,0687.0,31.3
2021-07-29T20:49:00Z,00040200,00000000,0005.17,0003.07,0002.04,0000.69,0000.52,0000.15,0001.41,0001.07,0000.78,20.9,26.8,07.9,05.5,0687.0,31.3
2021-07-29T20:50:00Z,00040200,00000000,0005.56,0003.17,0002.15,0000.70,0000.18,0000.29,0000.89,0000.85,0000.83,20.9,26.8,07.9,05.5,0687.0,31.3
2021-07-29T20:51:00Z,00040200,00000000,0004.94,0002.94,0001.59,0000.13,0000.42,0000.21,0001.12,0001.19,0001.29,20.9,26.8,08.0,05.6,0687.0,31.3
2021-07-29T20:52:00Z,00040200,00000000,0004.39,0002.92,0002.07,0000.76,0000.28,0000.24,0001.02,0000.86,0000.29,20.9,26.8,08.1,05.7,0687.0,31.3
2021-07-29T20:53:00Z,00040200,00000000,0004.71,0003.08,0001.87,0000.93,0000.51,0000.53,0000.32,0000.14,0000.19,20.9,26.8,07.9,05.5,0687.0,31.3
2021-07-29T20:54:00Z,00040200,00000000,0005.16,0003.06,0002.54,0000.77,0000.51,0000.89,0000.88,0001.04,0000.87,20.9,26.8,07.9,05.5,0687.0,31.3
2021-07-29T20:55:00Z,00040200,00000000,0004.44,0002.82,0002.04,0000.51,0000.21,0000.47,0001.68,0001.01,0000.62,20.9,26.8,08.0,05.6,0687.0,31.3
2021-07-29T20:56:00Z,00040200,00000000,0004.43,0003.01,0002.25,0000.44,0000.29,0000.14,0000.73,0000.75,0001.00,20.8,26.8,08.2,05.7,0687.0,31.3
2021-07-29T20:57:00Z,00040200,40000000,,,,,,,0000.26,0000.60,0000.25,20.9,26.9,07.7,05.4,0686.9,31.3
2021-07-29T20:58:00Z,00040200,60000000,,,,,,,-000.26,-000.33,-000.42,20.7,26.9,08.0,05.5,0686.0,31.3
2021-07-29T20:59:00Z,00040200,20000000,,,,,,,0000.13,0000.09,-000.00,20.7,27.0,07.9,05.4,0685.9,31.3
